Year,Month,Day,Hour,Minute,Value (Times are PST for temperature in C)
2009,08,02,00,00,17.90
2009,08,02,00,01,17.80
2009,08,02,00,02,17.80
2009,08,02,00,03,17.80
2009,08,02,00,04,17.80
2009,08,02,00,05,17.80
2009,08,02,00,06,17.80
2009,08,02,00,07,17.80
2009,08,02,00,08,17.80
2009,08,02,00,09,17.80
2009,08,02,00,10,17.80
2009,08,02,00,11,17.80
2009,08,02,00,12,17.80
2009,08,02,00,13,17.80
2009,08,02,00,14,17.80
2009,08,02,00,15,17.70
2009,08,02,00,16,17.70
2009,08,02,00,17,17.70
2009,08,02,00,18,17.70
2009,08,02,00,19,17.70
2009,08,02,00,20,17.60
2009,08,02,00,21,17.60
2009,08,02,00,22,17.60
2009,08,02,00,23,17.60
2009,08,02,00,24,17.60
2009,08,02,00,25,17.50
2009,08,02,00,26,17.50
2009,08,02,00,27,17.50
2009,08,02,00,28,17.50
2009,08,02,00,29,17.50
2009,08,02,00,30,17.50
2009,08,02,00,31,17.60
2009,08,02,00,32,17.60
2009,08,02,00,33,17.60
2009,08,02,00,34,17.50
2009,08,02,00,35,17.50
2009,08,02,00,36,17.50
2009,08,02,00,37,17.40
2009,08,02,00,38,17.40
2009,08,02,00,39,17.30
2009,08,02,00,40,17.30
2009,08,02,00,41,17.30
2009,08,02,00,42,17.30
2009,08,02,00,43,17.30
2009,08,02,00,44,17.20
2009,08,02,00,45,17.20
2009,08,02,00,46,17.20
2009,08,02,00,47,17.10
2009,08,02,00,48,17.10
2009,08,02,00,49,17.10
2009,08,02,00,50,17.00
2009,08,02,00,51,16.90
2009,08,02,00,52,16.90
2009,08,02,00,53,16.80
2009,08,02,00,54,16.80
2009,08,02,00,55,16.80
2009,08,02,00,56,16.70
2009,08,02,00,57,16.70
2009,08,02,00,58,16.70
2009,08,02,00,59,16.70
2009,08,02,01,00,16.70
2009,08,02,01,01,16.60
2009,08,02,01,02,16.60
2009,08,02,01,03,16.50
2009,08,02,01,04,16.40
2009,08,02,01,05,16.40
2009,08,02,01,06,16.40
2009,08,02,01,07,16.40
2009,08,02,01,08,16.40
2009,08,02,01,09,16.40
2009,08,02,01,10,16.30
2009,08,02,01,11,16.30
2009,08,02,01,12,16.30
2009,08,02,01,13,16.20
2009,08,02,01,14,16.20
2009,08,02,01,15,16.10
2009,08,02,01,16,16.10
2009,08,02,01,17,16.10
2009,08,02,01,18,16.00
2009,08,02,01,19,15.90
2009,08,02,01,20,15.90
2009,08,02,01,21,15.90
2009,08,02,01,22,15.80
2009,08,02,01,23,15.80
2009,08,02,01,24,15.80
2009,08,02,01,25,15.80
2009,08,02,01,26,15.80
2009,08,02,01,27,15.70
2009,08,02,01,28,15.70
2009,08,02,01,29,15.70
2009,08,02,01,30,15.70
2009,08,02,01,31,15.60
2009,08,02,01,32,15.60
2009,08,02,01,33,15.50
2009,08,02,01,34,15.50
2009,08,02,01,35,15.50
2009,08,02,01,36,15.40
2009,08,02,01,37,15.40
2009,08,02,01,38,15.30
2009,08,02,01,39,15.30
2009,08,02,01,40,15.30
2009,08,02,01,41,15.20
2009,08,02,01,42,15.20
2009,08,02,01,43,15.10
2009,08,02,01,44,15.10
2009,08,02,01,45,15.00
2009,08,02,01,46,15.00
2009,08,02,01,47,15.00
2009,08,02,01,48,14.90
2009,08,02,01,49,14.90
2009,08,02,01,50,14.80
2009,08,02,01,51,14.80
2009,08,02,01,52,14.80
2009,08,02,01,53,14.80
2009,08,02,01,54,14.80
2009,08,02,01,55,14.80
2009,08,02,01,56,14.70
2009,08,02,01,57,14.70
2009,08,02,01,58,14.60
2009,08,02,01,59,14.60
2009,08,02,02,00,14.60
2009,08,02,02,01,14.50
2009,08,02,02,02,14.50
2009,08,02,02,03,14.50
2009,08,02,02,04,14.40
2009,08,02,02,05,14.40
2009,08,02,02,06,14.40
2009,08,02,02,07,14.40
2009,08,02,02,08,14.40
2009,08,02,02,09,14.40
2009,08,02,02,10,14.40
2009,08,02,02,11,14.40
2009,08,02,02,12,14.40
2009,08,02,02,13,14.30
2009,08,02,02,14,14.30
2009,08,02,02,15,14.30
2009,08,02,02,16,14.30
2009,08,02,02,17,14.30
2009,08,02,02,18,14.30
2009,08,02,02,19,14.20
2009,08,02,02,20,14.20
2009,08,02,02,21,14.20
2009,08,02,02,22,14.20
2009,08,02,02,23,14.10
2009,08,02,02,24,14.10
2009,08,02,02,25,14.10
2009,08,02,02,26,14.10
2009,08,02,02,27,14.10
2009,08,02,02,28,14.10
2009,08,02,02,29,14.10
2009,08,02,02,30,14.00
2009,08,02,02,31,14.00
2009,08,02,02,32,14.00
2009,08,02,02,33,14.00
2009,08,02,02,34,14.10
2009,08,02,02,35,14.10
2009,08,02,02,36,14.10
2009,08,02,02,37,14.10
2009,08,02,02,38,14.10
2009,08,02,02,39,14.10
2009,08,02,02,40,14.10
2009,08,02,02,41,14.10
2009,08,02,02,42,14.10
2009,08,02,02,43,14.10
2009,08,02,02,44,14.10
2009,08,02,02,45,14.10
2009,08,02,02,46,14.10
2009,08,02,02,47,14.10
2009,08,02,02,48,14.10
2009,08,02,02,49,14.10
2009,08,02,02,50,14.10
2009,08,02,02,51,14.10
2009,08,02,02,52,14.10
2009,08,02,02,53,14.10
2009,08,02,02,54,14.10
2009,08,02,02,55,14.10
2009,08,02,02,56,14.10
2009,08,02,02,57,14.10
2009,08,02,02,58,14.10
2009,08,02,02,59,14.10
2009,08,02,03,00,14.20
2009,08,02,03,01,14.20
2009,08,02,03,02,14.20
2009,08,02,03,03,14.20
2009,08,02,03,04,14.20
2009,08,02,03,05,14.20
2009,08,02,03,06,14.20
2009,08,02,03,07,14.20
2009,08,02,03,08,14.20
2009,08,02,03,09,14.20
2009,08,02,03,10,14.20
2009,08,02,03,11,14.10
2009,08,02,03,12,14.10
2009,08,02,03,13,14.10
2009,08,02,03,14,14.10
2009,08,02,03,15,14.10
2009,08,02,03,16,14.10
2009,08,02,03,17,14.10
2009,08,02,03,18,14.10
2009,08,02,03,19,14.10
2009,08,02,03,20,14.10
2009,08,02,03,21,14.00
2009,08,02,03,22,14.00
2009,08,02,03,23,14.00
2009,08,02,03,24,14.00
2009,08,02,03,25,14.00
2009,08,02,03,26,14.00
2009,08,02,03,27,13.90
2009,08,02,03,28,13.90
2009,08,02,03,29,13.90
2009,08,02,03,30,13.90
2009,08,02,03,31,13.80
2009,08,02,03,32,13.70
2009,08,02,03,33,13.70
2009,08,02,03,34,13.70
2009,08,02,03,35,13.60
2009,08,02,03,36,13.60
2009,08,02,03,37,13.50
2009,08,02,03,38,13.50
2009,08,02,03,39,13.50
2009,08,02,03,40,13.40
2009,08,02,03,41,13.40
2009,08,02,03,42,13.30
2009,08,02,03,43,13.30
2009,08,02,03,44,13.30
2009,08,02,03,45,13.30
2009,08,02,03,46,13.30
2009,08,02,03,47,13.30
2009,08,02,03,48,13.30
2009,08,02,03,49,13.30
2009,08,02,03,50,13.20
2009,08,02,03,51,13.20
2009,08,02,03,52,13.20
2009,08,02,03,53,13.20
2009,08,02,03,54,13.20
2009,08,02,03,55,13.20
2009,08,02,03,56,13.20
2009,08,02,03,57,13.10
2009,08,02,03,58,13.10
2009,08,02,03,59,13.10
2009,08,02,04,00,13.00
2009,08,02,04,01,13.00
2009,08,02,04,02,13.00
2009,08,02,04,03,12.90
2009,08,02,04,04,12.90
2009,08,02,04,05,12.90
2009,08,02,04,06,12.90
2009,08,02,04,07,12.90
2009,08,02,04,08,12.80
2009,08,02,04,09,12.80
2009,08,02,04,10,12.80
2009,08,02,04,11,12.80
2009,08,02,04,12,12.80
2009,08,02,04,13,12.80
2009,08,02,04,14,12.80
2009,08,02,04,15,12.80
2009,08,02,04,16,12.80
2009,08,02,04,17,12.80
2009,08,02,04,18,12.80
2009,08,02,04,19,12.80
2009,08,02,04,20,12.70
2009,08,02,04,21,12.70
2009,08,02,04,22,12.70
2009,08,02,04,23,12.70
2009,08,02,04,24,12.70
2009,08,02,04,25,12.70
2009,08,02,04,26,12.70
2009,08,02,04,27,12.70
2009,08,02,04,28,12.70
2009,08,02,04,29,12.70
2009,08,02,04,30,12.70
2009,08,02,04,31,12.70
2009,08,02,04,32,12.70
2009,08,02,04,33,12.70
2009,08,02,04,34,12.70
2009,08,02,04,35,12.70
2009,08,02,04,36,12.70
2009,08,02,04,37,12.70
2009,08,02,04,38,12.70
2009,08,02,04,39,12.80
2009,08,02,04,40,12.80
2009,08,02,04,41,12.80
2009,08,02,04,42,12.80
2009,08,02,04,43,12.80
2009,08,02,04,44,12.80
2009,08,02,04,45,12.80
2009,08,02,04,46,12.80
2009,08,02,04,47,12.80
2009,08,02,04,48,12.80
2009,08,02,04,49,12.80
2009,08,02,04,50,12.80
2009,08,02,04,51,12.80
2009,08,02,04,52,12.80
2009,08,02,04,53,12.90
2009,08,02,04,54,12.90
2009,08,02,04,55,12.90
2009,08,02,04,56,12.90
2009,08,02,04,57,12.90
2009,08,02,04,58,12.90
2009,08,02,04,59,12.90
2009,08,02,05,00,12.90
2009,08,02,05,01,12.90
2009,08,02,05,02,12.90
2009,08,02,05,03,12.90
2009,08,02,05,04,12.90
2009,08,02,05,05,12.90
2009,08,02,05,06,12.90
2009,08,02,05,07,12.90
2009,08,02,05,08,12.90
2009,08,02,05,09,12.90
2009,08,02,05,10,12.90
2009,08,02,05,11,12.90
2009,08,02,05,12,12.90
2009,08,02,05,13,12.90
2009,08,02,05,14,12.90
2009,08,02,05,15,12.90
2009,08,02,05,16,12.80
2009,08,02,05,17,12.80
2009,08,02,05,18,12.80
2009,08,02,05,19,12.80
2009,08,02,05,20,12.80
2009,08,02,05,21,12.80
2009,08,02,05,22,12.80
2009,08,02,05,23,12.80
2009,08,02,05,24,12.70
2009,08,02,05,25,12.70
2009,08,02,05,26,12.60
2009,08,02,05,27,12.60
2009,08,02,05,28,12.50
2009,08,02,05,29,12.50
2009,08,02,05,30,12.50
2009,08,02,05,31,12.40
2009,08,02,05,32,12.40
2009,08,02,05,33,12.40
2009,08,02,05,34,12.30
2009,08,02,05,35,12.30
2009,08,02,05,36,12.30
2009,08,02,05,37,12.30
2009,08,02,05,38,12.30
2009,08,02,05,39,12.30
2009,08,02,05,40,12.30
2009,08,02,05,41,12.20
2009,08,02,05,42,12.20
2009,08,02,05,43,12.20
2009,08,02,05,44,12.20
2009,08,02,05,45,12.20
2009,08,02,05,46,12.10
2009,08,02,05,47,12.10
2009,08,02,05,48,12.10
2009,08,02,05,49,12.10
2009,08,02,05,50,12.10
2009,08,02,05,51,12.10
2009,08,02,05,52,12.00
2009,08,02,05,53,12.00
2009,08,02,05,54,12.00
2009,08,02,05,55,12.00
2009,08,02,05,56,12.00
2009,08,02,05,57,12.00
2009,08,02,05,58,11.90
2009,08,02,05,59,11.90
2009,08,02,06,00,11.90
2009,08,02,06,01,11.90
2009,08,02,06,02,11.90
2009,08,02,06,03,11.90
2009,08,02,06,04,11.90
2009,08,02,06,05,11.90
2009,08,02,06,06,11.80
2009,08,02,06,07,11.80
2009,08,02,06,08,11.80
2009,08,02,06,09,11.80
2009,08,02,06,10,11.80
2009,08,02,06,11,11.80
2009,08,02,06,12,11.80
2009,08,02,06,13,11.80
2009,08,02,06,14,11.80
2009,08,02,06,15,11.80
2009,08,02,06,16,11.80
2009,08,02,06,17,11.80
2009,08,02,06,18,11.80
2009,08,02,06,19,11.80
2009,08,02,06,20,11.80
2009,08,02,06,21,11.80
2009,08,02,06,22,11.80
2009,08,02,06,23,11.80
2009,08,02,06,24,11.80
2009,08,02,06,25,11.80
2009,08,02,06,26,11.80
2009,08,02,06,27,11.80
2009,08,02,06,28,11.80
2009,08,02,06,29,11.80
2009,08,02,06,30,11.80
2009,08,02,06,31,11.80
2009,08,02,06,32,11.80
2009,08,02,06,33,11.80
2009,08,02,06,34,11.80
2009,08,02,06,35,11.80
2009,08,02,06,36,11.80
2009,08,02,06,37,11.80
2009,08,02,06,38,11.80
2009,08,02,06,39,11.90
2009,08,02,06,40,11.90
2009,08,02,06,41,11.90
2009,08,02,06,42,11.90
2009,08,02,06,43,11.90
2009,08,02,06,44,11.90
2009,08,02,06,45,11.90
2009,08,02,06,46,11.90
2009,08,02,06,47,12.00
2009,08,02,06,48,12.00
2009,08,02,06,49,12.00
2009,08,02,06,50,12.00
2009,08,02,06,51,12.00
2009,08,02,06,52,12.00
2009,08,02,06,53,12.10
2009,08,02,06,54,12.10
2009,08,02,06,55,12.10
2009,08,02,06,56,12.20
2009,08,02,06,57,12.20
2009,08,02,06,58,12.30
2009,08,02,06,59,12.30
2009,08,02,07,00,12.30
2009,08,02,07,01,12.30
2009,08,02,07,02,12.30
2009,08,02,07,03,12.30
2009,08,02,07,04,12.30
2009,08,02,07,05,12.40
2009,08,02,07,06,12.40
2009,08,02,07,07,12.50
2009,08,02,07,08,12.50
2009,08,02,07,09,12.50
2009,08,02,07,10,12.50
2009,08,02,07,11,12.60
2009,08,02,07,12,12.60
2009,08,02,07,13,12.60
2009,08,02,07,14,12.60
2009,08,02,07,15,12.70
2009,08,02,07,16,12.70
2009,08,02,07,17,12.70
2009,08,02,07,18,12.80
2009,08,02,07,19,12.80
2009,08,02,07,20,12.80
2009,08,02,07,21,12.80
2009,08,02,07,22,12.90
2009,08,02,07,23,12.90
2009,08,02,07,24,12.90
2009,08,02,07,25,12.90
2009,08,02,07,26,13.00
2009,08,02,07,27,13.00
2009,08,02,07,28,13.00
2009,08,02,07,29,13.10
2009,08,02,07,30,13.10
2009,08,02,07,31,13.10
2009,08,02,07,32,13.10
2009,08,02,07,33,13.20
2009,08,02,07,34,13.20
2009,08,02,07,35,13.20
2009,08,02,07,36,13.30
2009,08,02,07,37,13.30
2009,08,02,07,38,13.30
2009,08,02,07,39,13.30
2009,08,02,07,40,13.40
2009,08,02,07,41,13.50
2009,08,02,07,42,13.50
2009,08,02,07,43,13.60
2009,08,02,07,44,13.60
2009,08,02,07,45,13.70
2009,08,02,07,46,13.70
2009,08,02,07,47,13.70
2009,08,02,07,48,13.80
2009,08,02,07,49,13.90
2009,08,02,07,50,14.00
2009,08,02,07,51,14.00
2009,08,02,07,52,14.10
2009,08,02,07,53,14.20
2009,08,02,07,54,14.20
2009,08,02,07,55,14.40
2009,08,02,07,56,14.50
2009,08,02,07,57,14.50
2009,08,02,07,58,14.60
2009,08,02,07,59,14.60
2009,08,02,08,00,14.70
2009,08,02,08,01,14.80
2009,08,02,08,02,14.80
2009,08,02,08,03,14.90
2009,08,02,08,04,14.90
2009,08,02,08,05,15.00
2009,08,02,08,06,15.10
2009,08,02,08,07,15.10
2009,08,02,08,08,15.20
2009,08,02,08,09,15.30
2009,08,02,08,10,15.30
2009,08,02,08,11,15.30
2009,08,02,08,12,15.40
2009,08,02,08,13,15.50
2009,08,02,08,14,15.50
2009,08,02,08,15,15.60
2009,08,02,08,16,15.70
2009,08,02,08,17,15.80
2009,08,02,08,18,15.80
2009,08,02,08,19,15.90
2009,08,02,08,20,16.00
2009,08,02,08,21,16.10
2009,08,02,08,22,16.20
2009,08,02,08,23,16.20
2009,08,02,08,24,16.30
2009,08,02,08,25,16.40
2009,08,02,08,26,16.50
2009,08,02,08,27,16.60
2009,08,02,08,28,16.70
2009,08,02,08,29,16.80
2009,08,02,08,30,16.90
2009,08,02,08,31,16.90
2009,08,02,08,32,17.00
2009,08,02,08,33,17.20
2009,08,02,08,34,17.30
2009,08,02,08,35,17.50
2009,08,02,08,36,17.70
2009,08,02,08,37,17.80
2009,08,02,08,38,17.90
2009,08,02,08,39,18.10
2009,08,02,08,40,18.20
2009,08,02,08,41,18.30
2009,08,02,08,42,18.40
2009,08,02,08,43,18.50
2009,08,02,08,44,18.60
2009,08,02,08,45,18.70
2009,08,02,08,46,18.80
2009,08,02,08,47,18.90
2009,08,02,08,48,19.00
2009,08,02,08,49,19.10
2009,08,02,08,50,19.30
2009,08,02,08,51,19.40
2009,08,02,08,52,19.50
2009,08,02,08,53,19.60
2009,08,02,08,54,19.80
2009,08,02,08,55,19.90
2009,08,02,08,56,20.00
2009,08,02,08,57,20.20
2009,08,02,08,58,20.30
2009,08,02,08,59,20.40
2009,08,02,09,00,20.50
2009,08,02,09,01,20.60
2009,08,02,09,02,20.60
2009,08,02,09,03,20.60
2009,08,02,09,04,20.60
2009,08,02,09,05,20.60
2009,08,02,09,06,20.60
2009,08,02,09,07,20.60
2009,08,02,09,08,20.60
2009,08,02,09,09,20.60
2009,08,02,09,10,20.60
2009,08,02,09,11,20.60
2009,08,02,09,12,20.60
2009,08,02,09,13,20.60
2009,08,02,09,14,20.60
2009,08,02,09,15,20.60
2009,08,02,09,16,20.50
2009,08,02,09,17,20.60
2009,08,02,09,18,20.60
2009,08,02,09,19,20.70
2009,08,02,09,20,20.80
2009,08,02,09,21,20.90
2009,08,02,09,22,21.00
2009,08,02,09,23,21.10
2009,08,02,09,24,21.10
2009,08,02,09,25,21.20
2009,08,02,09,26,21.30
2009,08,02,09,27,21.50
2009,08,02,09,28,21.60
2009,08,02,09,29,21.60
2009,08,02,09,30,21.70
2009,08,02,09,31,21.80
2009,08,02,09,32,21.90
2009,08,02,09,33,22.10
2009,08,02,09,34,22.20
2009,08,02,09,35,22.30
2009,08,02,09,36,22.20
2009,08,02,09,37,22.10
2009,08,02,09,38,22.10
2009,08,02,09,39,22.10
2009,08,02,09,40,22.10
2009,08,02,09,41,22.20
2009,08,02,09,42,22.30
2009,08,02,09,43,22.40
2009,08,02,09,44,22.50
2009,08,02,09,45,22.60
2009,08,02,09,46,22.60
2009,08,02,09,47,22.70
2009,08,02,09,48,22.70
2009,08,02,09,49,22.70
2009,08,02,09,50,22.60
2009,08,02,09,51,22.50
2009,08,02,09,52,22.50
2009,08,02,09,53,22.60
2009,08,02,09,54,22.70
2009,08,02,09,55,22.80
2009,08,02,09,56,22.90
2009,08,02,09,57,22.90
2009,08,02,09,58,22.90
2009,08,02,09,59,23.00
2009,08,02,10,00,23.10
2009,08,02,10,01,23.20
2009,08,02,10,02,23.20
2009,08,02,10,03,23.20
2009,08,02,10,04,23.20
2009,08,02,10,05,23.30
2009,08,02,10,06,23.30
2009,08,02,10,07,23.30
2009,08,02,10,08,23.30
2009,08,02,10,09,23.40
2009,08,02,10,10,23.50
2009,08,02,10,11,23.60
2009,08,02,10,12,23.60
2009,08,02,10,13,23.70
2009,08,02,10,14,23.70
2009,08,02,10,15,23.70
2009,08,02,10,16,23.60
2009,08,02,10,17,23.40
2009,08,02,10,18,23.30
2009,08,02,10,19,23.30
2009,08,02,10,20,23.40
2009,08,02,10,21,23.40
2009,08,02,10,22,23.40
2009,08,02,10,23,23.50
2009,08,02,10,24,23.60
2009,08,02,10,25,23.60
2009,08,02,10,26,23.70
2009,08,02,10,27,23.70
2009,08,02,10,28,23.80
2009,08,02,10,29,23.90
2009,08,02,10,30,23.90
2009,08,02,10,31,23.90
2009,08,02,10,32,23.90
2009,08,02,10,33,23.80
2009,08,02,10,34,23.60
2009,08,02,10,35,23.40
2009,08,02,10,36,23.30
2009,08,02,10,37,23.30
2009,08,02,10,38,23.30
2009,08,02,10,39,23.30
2009,08,02,10,40,23.30
2009,08,02,10,41,23.30
2009,08,02,10,42,23.30
2009,08,02,10,43,23.40
2009,08,02,10,44,23.50
2009,08,02,10,45,23.60
2009,08,02,10,46,23.60
2009,08,02,10,47,23.60
2009,08,02,10,48,23.60
2009,08,02,10,49,23.50
2009,08,02,10,50,23.50
2009,08,02,10,51,23.40
2009,08,02,10,52,23.40
2009,08,02,10,53,23.40
2009,08,02,10,54,23.40
2009,08,02,10,55,23.40
2009,08,02,10,56,23.40
2009,08,02,10,57,23.40
2009,08,02,10,58,23.60
2009,08,02,10,59,23.60
2009,08,02,11,00,23.70
2009,08,02,11,01,23.70
2009,08,02,11,02,23.70
2009,08,02,11,03,23.80
2009,08,02,11,04,23.90
2009,08,02,11,05,24.00
2009,08,02,11,06,24.10
2009,08,02,11,07,24.20
2009,08,02,11,08,24.30
2009,08,02,11,09,24.40
2009,08,02,11,10,24.40
2009,08,02,11,11,24.20
2009,08,02,11,12,24.10
2009,08,02,11,13,24.10
2009,08,02,11,14,24.10
2009,08,02,11,15,24.10
2009,08,02,11,16,24.10
2009,08,02,11,17,24.10
2009,08,02,11,18,24.10
2009,08,02,11,19,24.20
2009,08,02,11,20,24.20
2009,08,02,11,21,24.30
2009,08,02,11,22,24.40
2009,08,02,11,23,24.30
2009,08,02,11,24,24.20
2009,08,02,11,25,24.10
2009,08,02,11,26,24.10
2009,08,02,11,27,24.10
2009,08,02,11,28,24.10
2009,08,02,11,29,24.10
2009,08,02,11,30,24.20
2009,08,02,11,31,24.20
2009,08,02,11,32,24.20
2009,08,02,11,33,24.20
2009,08,02,11,34,24.30
2009,08,02,11,35,24.30
2009,08,02,11,36,24.30
2009,08,02,11,37,24.30
2009,08,02,11,38,24.20
2009,08,02,11,39,24.30
2009,08,02,11,40,24.30
2009,08,02,11,41,24.40
2009,08,02,11,42,24.40
2009,08,02,11,43,24.50
2009,08,02,11,44,24.50
2009,08,02,11,45,24.60
2009,08,02,11,46,24.60
2009,08,02,11,47,24.70
2009,08,02,11,48,24.80
2009,08,02,11,49,24.80
2009,08,02,11,50,24.90
2009,08,02,11,51,24.90
2009,08,02,11,52,25.00
2009,08,02,11,53,25.00
2009,08,02,11,54,25.10
2009,08,02,11,55,25.20
2009,08,02,11,56,25.20
2009,08,02,11,57,25.40
2009,08,02,11,58,25.40
2009,08,02,11,59,25.30
2009,08,02,12,00,25.30
2009,08,02,12,01,25.30
2009,08,02,12,02,25.30
2009,08,02,12,03,25.30
2009,08,02,12,04,25.30
2009,08,02,12,05,25.40
2009,08,02,12,06,25.40
2009,08,02,12,07,25.40
2009,08,02,12,08,25.40
2009,08,02,12,09,25.30
2009,08,02,12,10,25.30
2009,08,02,12,11,25.20
2009,08,02,12,12,25.20
2009,08,02,12,13,25.20
2009,08,02,12,14,25.10
2009,08,02,12,15,25.10
2009,08,02,12,16,25.10
2009,08,02,12,17,25.10
2009,08,02,12,18,25.10
2009,08,02,12,19,25.00
2009,08,02,12,20,25.00
2009,08,02,12,21,25.10
2009,08,02,12,22,25.20
2009,08,02,12,23,25.20
2009,08,02,12,24,25.20
2009,08,02,12,25,25.30
2009,08,02,12,26,25.30
2009,08,02,12,27,25.40
2009,08,02,12,28,25.40
2009,08,02,12,29,25.40
2009,08,02,12,30,25.40
2009,08,02,12,31,25.50
2009,08,02,12,32,25.40
2009,08,02,12,33,25.50
2009,08,02,12,34,25.50
2009,08,02,12,35,25.50
2009,08,02,12,36,25.50
2009,08,02,12,37,25.40
2009,08,02,12,38,25.30
2009,08,02,12,39,25.20
2009,08,02,12,40,25.20
2009,08,02,12,41,25.20
2009,08,02,12,42,25.10
2009,08,02,12,43,25.10
2009,08,02,12,44,25.10
2009,08,02,12,45,25.10
2009,08,02,12,46,25.00
2009,08,02,12,47,24.90
2009,08,02,12,48,24.90
2009,08,02,12,49,25.00
2009,08,02,12,50,25.10
2009,08,02,12,51,25.30
2009,08,02,12,52,25.40
2009,08,02,12,53,25.30
2009,08,02,12,54,25.40
2009,08,02,12,55,25.40
2009,08,02,12,56,25.50
2009,08,02,12,57,25.60
2009,08,02,12,58,25.70
2009,08,02,12,59,25.70
2009,08,02,13,00,25.70
2009,08,02,13,01,25.60
2009,08,02,13,02,25.60
2009,08,02,13,03,25.60
2009,08,02,13,04,25.60
2009,08,02,13,05,25.60
2009,08,02,13,06,25.70
2009,08,02,13,07,25.80
2009,08,02,13,08,25.90
2009,08,02,13,09,25.90
2009,08,02,13,10,25.90
2009,08,02,13,11,26.00
2009,08,02,13,12,26.10
2009,08,02,13,13,26.10
2009,08,02,13,14,26.10
2009,08,02,13,15,26.20
2009,08,02,13,16,26.20
2009,08,02,13,17,26.20
2009,08,02,13,18,26.30
2009,08,02,13,19,26.40
2009,08,02,13,20,26.40
2009,08,02,13,21,26.40
2009,08,02,13,22,26.30
2009,08,02,13,23,26.30
2009,08,02,13,24,26.30
2009,08,02,13,25,26.40
2009,08,02,13,26,26.40
2009,08,02,13,27,26.10
2009,08,02,13,28,25.90
2009,08,02,13,29,25.80
2009,08,02,13,30,25.80
2009,08,02,13,31,25.90
2009,08,02,13,32,25.90
2009,08,02,13,33,25.90
2009,08,02,13,34,25.90
2009,08,02,13,35,25.90
2009,08,02,13,36,25.90
2009,08,02,13,37,25.90
2009,08,02,13,38,25.90
2009,08,02,13,39,25.90
2009,08,02,13,40,26.10
2009,08,02,13,41,26.20
2009,08,02,13,42,26.30
2009,08,02,13,43,26.30
2009,08,02,13,44,26.40
2009,08,02,13,45,26.30
2009,08,02,13,46,26.10
2009,08,02,13,47,26.00
2009,08,02,13,48,26.00
2009,08,02,13,49,26.00
2009,08,02,13,50,26.00
2009,08,02,13,51,26.00
2009,08,02,13,52,26.00
2009,08,02,13,53,26.10
2009,08,02,13,54,26.20
2009,08,02,13,55,26.30
2009,08,02,13,56,26.40
2009,08,02,13,57,26.60
2009,08,02,13,58,26.60
2009,08,02,13,59,26.50
2009,08,02,14,00,26.20
2009,08,02,14,01,26.10
2009,08,02,14,02,26.20
2009,08,02,14,03,26.20
2009,08,02,14,04,26.30
2009,08,02,14,05,26.30
2009,08,02,14,06,26.40
2009,08,02,14,07,26.50
2009,08,02,14,08,26.60
2009,08,02,14,09,26.60
2009,08,02,14,10,26.60
2009,08,02,14,11,26.60
2009,08,02,14,12,26.70
2009,08,02,14,13,26.70
2009,08,02,14,14,26.80
2009,08,02,14,15,27.00
2009,08,02,14,16,27.10
2009,08,02,14,17,27.20
2009,08,02,14,18,27.30
2009,08,02,14,19,27.30
2009,08,02,14,20,27.10
2009,08,02,14,21,27.00
2009,08,02,14,22,26.80
2009,08,02,14,23,26.70
2009,08,02,14,24,26.60
2009,08,02,14,25,26.60
2009,08,02,14,26,26.60
2009,08,02,14,27,26.60
2009,08,02,14,28,26.60
2009,08,02,14,29,26.60
2009,08,02,14,30,26.80
2009,08,02,14,31,26.80
2009,08,02,14,32,26.70
2009,08,02,14,33,26.80
2009,08,02,14,34,26.80
2009,08,02,14,35,26.90
2009,08,02,14,36,27.10
2009,08,02,14,37,27.20
2009,08,02,14,38,27.20
2009,08,02,14,39,27.20
2009,08,02,14,40,27.20
2009,08,02,14,41,27.20
2009,08,02,14,42,27.20
2009,08,02,14,43,27.30
2009,08,02,14,44,27.30
2009,08,02,14,45,27.30
2009,08,02,14,46,27.30
2009,08,02,14,47,27.30
2009,08,02,14,48,27.30
2009,08,02,14,49,27.30
2009,08,02,14,50,27.30
2009,08,02,14,51,27.30
2009,08,02,14,52,27.40
2009,08,02,14,53,27.40
2009,08,02,14,54,27.30
2009,08,02,14,55,27.30
2009,08,02,14,56,27.40
2009,08,02,14,57,27.30
2009,08,02,14,58,27.30
2009,08,02,14,59,27.40
2009,08,02,15,00,27.30
2009,08,02,15,01,27.30
2009,08,02,15,02,27.30
2009,08,02,15,03,27.50
2009,08,02,15,04,27.60
2009,08,02,15,05,27.70
2009,08,02,15,06,27.80
2009,08,02,15,07,27.80
2009,08,02,15,08,27.80
2009,08,02,15,09,27.80
2009,08,02,15,10,27.90
2009,08,02,15,11,27.90
2009,08,02,15,12,27.90
2009,08,02,15,13,27.90
2009,08,02,15,14,28.00
2009,08,02,15,15,28.00
2009,08,02,15,16,28.00
2009,08,02,15,17,28.10
2009,08,02,15,18,28.10
2009,08,02,15,19,28.00
2009,08,02,15,20,27.90
2009,08,02,15,21,27.90
2009,08,02,15,22,27.80
2009,08,02,15,23,27.70
2009,08,02,15,24,27.80
2009,08,02,15,25,27.80
2009,08,02,15,26,27.70
2009,08,02,15,27,27.60
2009,08,02,15,28,27.50
2009,08,02,15,29,27.40
2009,08,02,15,30,27.30
2009,08,02,15,31,27.40
2009,08,02,15,32,27.40
2009,08,02,15,33,27.60
2009,08,02,15,34,27.60
2009,08,02,15,35,27.70
2009,08,02,15,36,27.70
2009,08,02,15,37,27.80
2009,08,02,15,38,27.80
2009,08,02,15,39,27.80
2009,08,02,15,40,27.90
2009,08,02,15,41,27.90
2009,08,02,15,42,27.90
2009,08,02,15,43,27.90
2009,08,02,15,44,27.90
2009,08,02,15,45,27.80
2009,08,02,15,46,27.70
2009,08,02,15,47,27.70
2009,08,02,15,48,27.70
2009,08,02,15,49,27.60
2009,08,02,15,50,27.60
2009,08,02,15,51,27.60
2009,08,02,15,52,27.60
2009,08,02,15,53,27.50
2009,08,02,15,54,27.50
2009,08,02,15,55,27.60
2009,08,02,15,56,27.50
2009,08,02,15,57,27.40
2009,08,02,15,58,27.30
2009,08,02,15,59,27.20
2009,08,02,16,00,27.20
2009,08,02,16,01,27.10
2009,08,02,16,02,27.10
2009,08,02,16,03,27.10
2009,08,02,16,04,27.10
2009,08,02,16,05,27.20
2009,08,02,16,06,27.30
2009,08,02,16,07,27.30
2009,08,02,16,08,27.30
2009,08,02,16,09,27.30
2009,08,02,16,10,27.30
2009,08,02,16,11,27.40
2009,08,02,16,12,27.40
2009,08,02,16,13,27.40
2009,08,02,16,14,27.30
2009,08,02,16,15,27.30
2009,08,02,16,16,27.30
2009,08,02,16,17,27.30
2009,08,02,16,18,27.40
2009,08,02,16,19,27.40
2009,08,02,16,20,27.30
2009,08,02,16,21,27.30
2009,08,02,16,22,27.30
2009,08,02,16,23,27.30
2009,08,02,16,24,27.30
2009,08,02,16,25,27.30
2009,08,02,16,26,27.30
2009,08,02,16,27,27.30
2009,08,02,16,28,27.30
2009,08,02,16,29,27.30
2009,08,02,16,30,27.30
2009,08,02,16,31,27.30
2009,08,02,16,32,27.30
2009,08,02,16,33,27.20
2009,08,02,16,34,27.10
2009,08,02,16,35,27.00
2009,08,02,16,36,26.90
2009,08,02,16,37,26.90
2009,08,02,16,38,26.90
2009,08,02,16,39,26.90
2009,08,02,16,40,26.90
2009,08,02,16,41,26.90
2009,08,02,16,42,26.90
2009,08,02,16,43,26.90
2009,08,02,16,44,27.00
2009,08,02,16,45,27.10
2009,08,02,16,46,27.20
2009,08,02,16,47,27.20
2009,08,02,16,48,27.10
2009,08,02,16,49,27.20
2009,08,02,16,50,27.20
2009,08,02,16,51,27.20
2009,08,02,16,52,27.30
2009,08,02,16,53,27.30
2009,08,02,16,54,27.30
2009,08,02,16,55,27.40
2009,08,02,16,56,27.50
2009,08,02,16,57,27.60
2009,08,02,16,58,27.60
2009,08,02,16,59,27.60
2009,08,02,17,00,27.50
2009,08,02,17,01,27.40
2009,08,02,17,02,27.30
2009,08,02,17,03,27.30
2009,08,02,17,04,27.30
2009,08,02,17,05,27.30
2009,08,02,17,06,27.40
2009,08,02,17,07,27.40
2009,08,02,17,08,27.30
2009,08,02,17,09,27.40
2009,08,02,17,10,27.50
2009,08,02,17,11,27.60
2009,08,02,17,12,27.70
2009,08,02,17,13,27.70
2009,08,02,17,14,27.70
2009,08,02,17,15,27.70
2009,08,02,17,16,27.70
2009,08,02,17,17,27.70
2009,08,02,17,18,27.70
2009,08,02,17,19,27.70